Total_Precipitation_Accumulation
0.01 0.02 0.01 0.00 0.00 0.00 0.00 0.01 0.00 0.00 0.00 0.00 0.00 0.00 0.01 0.01 0.05 0.07 0.07 0.12 0.13 0.09 0.01 0.03 0.08 0.06 0.05 0.08 0.07 0.05 0.04 0.09 0.05 0.11 0.27 0.20 0.15 0.11 0.12 0.33 0.66 0.41 0.31 0.25 0.15 0.07 0.10 0.04 0.03 0.05 0.03 0.00 0.00 0.00
0.03 0.02 0.02 0.01 0.00 0.00 0.00 0.00 0.00 0.00 0.00 0.00 0.00 0.01 0.01 0.02 0.05 0.16 0.06 0.08 0.11 0.14 0.02 0.00 0.01 0.02 0.04 0.06 0.16 0.09 0.06 0.08 0.24 0.23 0.18 0.07 0.07 0.09 0.06 0.32 0.15 0.52 0.37 0.31 0.39 0.43 0.20 0.14 0.17 0.05 0.00 0.00 0.00 0.00
0.04 0.03 0.02 0.01 0.00 0.00 0.00 0.00 0.00 0.00 0.00 0.00 0.01 0.01 0.03 0.06 0.09 0.19 0.15 0.14 0.16 0.13 0.03 0.03 0.10 0.05 0.00 0.02 0.04 0.06 0.09 0.13 0.12 0.21 0.16 0.10 0.11 0.05 0.05 0.08 0.05 0.13 0.14 0.19 0.25 0.34 0.42 0.38 0.24 0.11 0.00 0.00 0.00 0.00
0.01 0.01 0.00 0.00 0.00 0.00 0.00 0.00 0.00 0.00 0.00 0.00 0.01 0.02 0.04 0.08 0.14 0.18 0.16 0.14 0.17 0.20 0.12 0.02 0.02 0.02 0.00 0.00 0.00 0.01 0.03 0.02 0.02 0.07 0.17 0.13 0.09 0.04 0.01 0.01 0.00 0.05 0.20 0.22 0.15 0.12 0.24 0.47 0.16 0.14 0.06 0.00 0.00 0.00
0.02 0.02 0.02 0.02 0.00 0.00 0.00 0.00 0.00 0.00 0.00 0.00 0.01 0.01 0.04 0.08 0.08 0.08 0.13 0.15 0.13 0.30 0.21 0.02 0.03 0.02 0.00 0.00 0.00 0.00 0.02 0.05 0.05 0.06 0.10 0.07 0.06 0.07 0.02 0.01 0.08 0.11 0.26 0.29 0.33 0.17 0.19 0.24 0.15 0.12 0.08 0.02 0.00 0.00
0.03 0.02 0.02 0.01 0.00 0.00 0.00 0.00 0.00 0.00 0.00 0.00 0.01 0.03 0.05 0.06 0.04 0.06 0.07 0.10 0.05 0.08 0.18 0.05 0.04 0.01 0.01 0.00 0.02 0.03 0.05 0.05 0.07 0.07 0.07 0.06 0.05 0.09 0.06 0.03 0.10 0.11 0.08 0.11 0.12 0.15 0.17 0.16 0.31 0.19 0.12 0.11 0.03 0.00
0.02 0.01 0.00 0.00 0.00 0.00 0.00 0.00 0.00 0.00 0.00 0.00 0.02 0.04 0.07 0.03 0.05 0.06 0.09 0.05 0.02 0.07 0.13 0.06 0.04 0.02 0.01 0.01 0.08 0.10 0.07 0.08 0.05 0.03 0.02 0.04 0.04 0.08 0.07 0.01 0.00 0.01 0.01 0.00 0.01 0.06 0.14 0.09 0.20 0.27 0.22 0.24 0.10 0.01
0.01 0.01 0.01 0.01 0.00 0.00 0.00 0.00 0.00 0.00 0.00 0.01 0.03 0.07 0.04 0.01 0.04 0.05 0.03 0.02 0.08 0.06 0.04 0.04 0.03 0.06 0.01 0.03 0.16 0.12 0.11 0.02 0.02 0.05 0.05 0.06 0.05 0.11 0.04 0.00 0.00 0.00 0.00 0.00 0.00 0.03 0.10 0.06 0.04 0.17 0.22 0.28 0.18 0.05
0.00 0.00 0.00 0.00 0.00 0.00 0.00 0.00 0.00 0.00 0.01 0.03 0.06 0.04 0.04 0.03 0.03 0.04 0.03 0.04 0.02 0.05 0.08 0.06 0.07 0.07 0.01 0.02 0.04 0.12 0.11 0.07 0.05 0.07 0.07 0.10 0.09 0.07 0.01 0.01 0.00 0.00 0.00 0.00 0.00 0.03 0.03 0.04 0.03 0.10 0.26 0.34 0.34 0.20
0.01 0.00 0.00 0.00 0.00 0.00 0.00 0.00 0.00 0.01 0.02 0.13 0.08 0.07 0.04 0.04 0.03 0.02 0.04 0.06 0.05 0.05 0.06 0.02 0.02 0.04 0.04 0.03 0.03 0.06 0.09 0.05 0.10 0.14 0.14 0.10 0.08 0.10 0.02 0.01 0.01 0.00 0.00 0.00 0.00 0.00 0.01 0.02 0.04 0.11 0.20 0.29 0.24 0.24
0.00 0.00 0.00 0.00 0.00 0.00 0.00 0.00 0.01 0.04 0.12 0.25 0.23 0.11 0.05 0.02 0.03 0.05 0.04 0.03 0.04 0.02 0.02 0.00 0.01 0.04 0.03 0.05 0.03 0.05 0.04 0.04 0.06 0.16 0.13 0.20 0.20 0.14 0.03 0.02 0.01 0.00 0.00 0.00 0.00 0.00 0.00 0.01 0.01 0.08 0.19 0.21 0.12 0.16
0.01 0.00 0.00 0.00 0.00 0.00 0.00 0.00 0.02 0.07 0.15 0.19 0.09 0.04 0.05 0.04 0.04 0.02 0.01 0.01 0.02 0.03 0.01 0.00 0.02 0.02 0.03 0.01 0.03 0.07 0.06 0.03 0.06 0.08 0.11 0.23 0.23 0.03 0.02 0.07 0.04 0.07 0.03 0.02 0.00 0.00 0.00 0.01 0.00 0.01 0.09 0.16 0.06 0.03
0.00 0.00 0.00 0.00 0.00 0.00 0.01 0.01 0.01 0.05 0.11 0.08 0.04 0.01 0.02 0.02 0.02 0.00 0.00 0.02 0.06 0.01 0.00 0.00 0.05 0.06 0.06 0.07 0.07 0.08 0.03 0.04 0.06 0.14 0.17 0.24 0.25 0.06 0.06 0.04 0.05 0.09 0.03 0.04 0.03 0.02 0.02 0.01 0.00 0.00 0.00 0.03 0.05 0.01
0.00 0.01 0.01 0.00 0.00 0.00 0.02 0.01 0.02 0.02 0.06 0.05 0.01 0.01 0.01 0.01 0.00 0.00 0.00 0.01 0.01 0.00 0.00 0.00 0.03 0.08 0.10 0.10 0.08 0.07 0.03 0.04 0.07 0.12 0.17 0.19 0.06 0.07 0.03 0.02 0.03 0.05 0.02 0.00 0.00 0.00 0.00 0.00 0.00 0.00 0.00 0.00 0.01 0.01
0.01 0.01 0.01 0.00 0.00 0.02 0.05 0.02 0.02 0.01 0.05 0.05 0.02 0.01 0.00 0.00 0.00 0.00 0.00 0.00 0.00 0.00 0.00 0.00 0.03 0.08 0.08 0.06 0.08 0.07 0.04 0.05 0.07 0.13 0.11 0.04 0.06 0.05 0.03 0.01 0.01 0.00 0.00 0.00 0.00 0.00 0.00 0.00 0.00 0.00 0.00 0.00 0.00 0.00
0.02 0.02 0.01 0.00 0.01 0.02 0.04 0.04 0.02 0.04 0.04 0.01 0.00 0.00 0.00 0.00 0.00 0.00 0.00 0.00 0.00 0.00 0.01 0.02 0.05 0.06 0.03 0.06 0.08 0.07 0.05 0.07 0.10 0.09 0.15 0.07 0.02 0.03 0.05 0.01 0.00 0.00 0.00 0.00 0.00 0.00 0.00 0.00 0.00 0.00 0.00 0.00 0.00 0.00
0.04 0.02 0.01 0.01 0.02 0.05 0.05 0.04 0.05 0.04 0.01 0.00 0.00 0.00 0.00 0.00 0.00 0.00 0.01 0.00 0.00 0.01 0.07 0.12 0.12 0.07 0.08 0.10 0.09 0.04 0.09 0.07 0.06 0.09 0.08 0.03 0.01 0.00 0.00 0.00 0.00 0.01 0.00 0.00 0.00 0.00 0.00 0.00 0.00 0.00 0.00 0.00 0.00 0.00
0.07 0.01 0.02 0.06 0.05 0.07 0.06 0.05 0.06 0.02 0.01 0.00 0.00 0.00 0.00 0.00 0.00 0.00 0.00 0.00 0.00 0.00 0.02 0.06 0.08 0.07 0.06 0.03 0.03 0.01 0.01 0.00 0.01 0.02 0.02 0.01 0.01 0.00 0.00 0.00 0.00 0.00 0.00 0.00 0.00 0.00 0.00 0.00 0.00 0.00 0.00 0.00 0.00 0.00
0.02 0.00 0.01 0.03 0.02 0.04 0.04 0.02 0.03 0.03 0.00 0.00 0.00 0.00 0.00 0.00 0.00 0.00 0.00 0.00 0.00 0.00 0.03 0.06 0.06 0.02 0.00 0.00 0.00 0.01 0.01 0.02 0.02 0.02 0.02 0.02 0.03 0.01 0.00 0.00 0.00 0.00 0.02 0.02 0.01 0.00 0.00 0.00 0.00 0.00 0.00 0.00 0.00 0.00
0.03 0.01 0.01 0.01 0.03 0.09 0.03 0.03 0.02 0.02 0.00 0.00 0.00 0.00 0.00 0.00 0.00 0.00 0.01 0.01 0.02 0.05 0.07 0.04 0.01 0.01 0.03 0.01 0.00 0.00 0.01 0.02 0.03 0.02 0.01 0.01 0.00 0.01 0.02 0.02 0.01 0.01 0.05 0.03 0.01 0.01 0.00 0.00 0.00 0.00 0.00 0.00 0.00 0.00
0.13 0.07 0.04 0.06 0.10 0.11 0.07 0.02 0.02 0.01 0.01 0.01 0.00 0.01 0.01 0.00 0.01 0.01 0.01 0.04 0.17 0.19 0.11 0.02 0.02 0.04 0.04 0.03 0.02 0.01 0.01 0.00 0.02 0.03 0.02 0.02 0.00 0.00 0.01 0.00 0.00 0.00 0.01 0.02 0.01 0.01 0.00 0.00 0.00 0.00 0.00 0.00 0.00 0.00
0.06 0.03 0.06 0.14 0.16 0.12 0.06 0.01 0.01 0.03 0.02 0.01 0.00 0.01 0.01 0.01 0.01 0.01 0.01 0.05 0.07 0.03 0.06 0.05 0.06 0.05 0.03 0.02 0.02 0.02 0.02 0.02 0.01 0.01 0.01 0.01 0.01 0.02 0.03 0.04 0.05 0.04 0.02 0.02 0.01 0.00 0.00 0.00 0.00 0.00 0.00 0.00 0.00 0.00
0.04 0.07 0.12 0.10 0.09 0.12 0.08 0.02 0.03 0.01 0.01 0.01 0.01 0.01 0.01 0.01 0.01 0.01 0.03 0.02 0.02 0.01 0.01 0.00 0.00 0.01 0.01 0.00 0.00 0.00 0.00 0.00 0.01 0.01 0.01 0.01 0.02 0.02 0.03 0.03 0.02 0.00 0.00 0.00 0.00 0.00 0.00 0.00 0.00 0.00 0.00 0.00 0.00 0.01
0.07 0.14 0.11 0.09 0.06 0.05 0.03 0.05 0.03 0.01 0.01 0.01 0.01 0.01 0.00 0.01 0.02 0.02 0.01 0.00 0.00 0.00 0.00 0.00 0.00 0.00 0.00 0.00 0.00 0.00 0.00 0.00 0.00 0.00 0.00 0.00 0.00 0.01 0.01 0.00 0.00 0.00 0.00 0.00 0.00 0.00 0.00 0.00 0.00 0.00 0.00 0.01 0.01 0.01
0.19 0.22 0.12 0.11 0.05 0.05 0.03 0.02 0.02 0.01 0.01 0.01 0.01 0.01 0.01 0.02 0.03 0.01 0.00 0.00 0.00 0.00 0.00 0.00 0.00 0.00 0.00 0.00 0.00 0.01 0.00 0.00 0.01 0.01 0.01 0.00 0.00 0.00 0.00 0.00 0.00 0.00 0.00 0.00 0.00 0.00 0.00 0.00 0.00 0.00 0.00 0.01 0.02 0.01
0.16 0.07 0.02 0.02 0.01 0.01 0.01 0.00 0.00 0.00 0.00 0.01 0.00 0.00 0.01 0.03 0.02 0.00 0.00 0.00 0.00 0.00 0.00 0.00 0.00 0.00 0.00 0.00 0.00 0.00 0.01 0.00 0.00 0.01 0.01 0.00 0.00 0.00 0.00 0.01 0.02 0.03 0.00 0.00 0.00 0.00 0.00 0.00 0.00 0.01 0.01 0.01 0.02 0.02
0.13 0.06 0.00 0.00 0.00 0.00 0.00 0.00 0.00 0.00 0.01 0.01 0.00 0.01 0.02 0.02 0.00 0.00 0.00 0.00 0.00 0.00 0.00 0.00 0.00 0.00 0.00 0.01 0.00 0.00 0.00 0.00 0.00 0.01 0.01 0.00 0.00 0.00 0.00 0.00 0.00 0.01 0.00 0.00 0.00 0.00 0.01 0.01 0.01 0.01 0.01 0.02 0.02 0.03
0.03 0.00 0.00 0.00 0.00 0.00 0.00 0.01 0.01 0.01 0.00 0.00 0.00 0.01 0.01 0.00 0.00 0.00 0.00 0.00 0.00 0.00 0.00 0.00 0.00 0.00 0.00 0.00 0.00 0.00 0.00 0.00 0.00 0.00 0.00 0.00 0.00 0.00 0.00 0.00 0.00 0.00 0.00 0.00 0.00 0.01 0.01 0.01 0.01 0.01 0.01 0.02 0.03 0.03
0.01 0.00 0.00 0.00 0.01 0.01 0.01 0.00 0.00 0.00 0.00 0.00 0.00 0.00 0.00 0.00 0.00 0.00 0.00 0.00 0.00 0.00 0.00 0.00 0.00 0.00 0.00 0.00 0.00 0.00 0.00 0.00 0.00 0.00 0.00 0.01 0.01 0.00 0.00 0.00 0.00 0.00 0.00 0.00 0.00 0.00 0.00 0.01 0.00 0.01 0.02 0.03 0.05 0.04
0.00 0.00 0.00 0.00 0.00 0.00 0.00 0.00 0.00 0.00 0.00 0.01 0.02 0.01 0.01 0.00 0.00 0.00 0.00 0.00 0.00 0.00 0.00 0.00 0.01 0.00 0.01 0.01 0.01 0.00 0.00 0.00 0.00 0.01 0.01 0.01 0.01 0.00 0.00 0.00 0.00 0.00 0.00 0.00 0.00 0.00 0.00 0.00 0.01 0.01 0.01 0.02 0.02 0.03
0.00 0.00 0.00 0.00 0.00 0.00 0.00 0.01 0.00 0.00 0.00 0.00 0.01 0.01 0.01 0.01 0.00 0.00 0.00 0.00 0.00 0.00 0.00 0.00 0.00 0.00 0.00 0.00 0.00 0.01 0.01 0.01 0.00 0.00 0.00 0.01 0.00 0.00 0.00 0.00 0.00 0.00 0.00 0.00 0.00 0.00 0.00 0.00 0.00 0.01 0.01 0.01 0.01 0.02
0.00 0.00 0.00 0.00 0.00 0.01 0.00 0.01 0.01 0.01 0.01 0.01 0.00 0.00 0.00 0.00 0.00 0.00 0.00 0.00 0.00 0.00 0.00 0.00 0.00 0.00 0.00 0.01 0.00 0.00 0.01 0.00 0.00 0.00 0.00 0.00 0.00 0.00 0.00 0.00 0.00 0.00 0.00 0.00 0.00 0.00 0.00 0.00 0.00 0.01 0.01 0.01 0.01 0.01
0.01 0.01 0.01 0.01 0.02 0.03 0.02 0.01 0.01 0.02 0.02 0.02 0.01 0.01 0.01 0.00 0.00 0.00 0.00 0.00 0.00 0.00 0.00 0.00 0.01 0.01 0.00 0.00 0.00 0.00 0.00 0.00 0.00 0.01 0.01 0.00 0.00 0.00 0.00 0.00 0.00 0.00 0.00 0.00 0.00 0.00 0.00 0.00 0.00 0.00 0.01 0.01 0.01 0.01